Home   Weather   Ludwigshafen   Past weeks

Flag for Germany Past Weather in Ludwigshafen, Rhineland-Palatinate, Germany — Yesterday and Last 2 Weeks

Now
46 °F

Rain. Fog.


Feels Like: 39 °F
Forecast: 42 / 49 °F
Wind: 18 mph from West

Location: Wiesbaden Airport

Current Time: Feb 27, 2017 at 9:55:25 pm

Latest Report: Feb 27, 2017 at 8:58 pm


Visibility: 6 mi

Pressure: 29.44 "Hg

Humidity: 87%

Dew Point: 43 °F

Location of LudwigshafenLocation

Past Weather in Ludwigshafen — Graph

°F

Ludwigshafen Temperature Yesterday

Maximum temperature yesterday: 57 °F (at 2:58 pm)
Minimum temperature yesterday: 36 °F (at 3:58 am)
Average temperature yesterday: 46 °F

High & Low Weather Summary for the Past Weeks

 TemperatureHumidityPressure
High57 °F (Feb 26, 2:58 pm)100% (Feb 16, 7:22 am)30.62 "Hg (Feb 16, 7:22 am)
Low27 °F (Feb 15, 3:58 am)39% (Feb 26, 2:58 pm)29.36 "Hg (Feb 27, 8:37 pm)
Average44 °F79%30.10 "Hg
* Reported Feb 12 8:32 pm — Feb 27 8:44 pm, Ludwigshafen, Weather by CustomWeather, © 2017

Note: Actual official high and low records may vary slightly from our data, if they occured in-between our weather recording intervals... More about our weather records

Advertising

Ludwigshafen Weather History for the Previous 24 Hours

Scroll right to see more
 ConditionsComfort  
Time TempWeatherWind HumidityBarometerVisibility
8:44 pm
Mon, Feb 27
52 °FHeavy rain. Mostly cloudy.32 mph67%29.41 "Hg1 mi
8:37 pm54 °FLight rain. Partly cloudy.21 mph54%29.36 "HgN/A
7:58 pm54 °FMostly cloudy.13 mph54%29.39 "HgN/A
6:58 pm54 °FPartly cloudy.13 mph54%29.43 "HgN/A
5:58 pm55 °FOvercast.16 mph51%29.48 "HgN/A
4:58 pm55 °FOvercast.17 mph51%29.52 "HgN/A
3:58 pm57 °FOvercast.17 mph48%29.54 "HgN/A
2:58 pm55 °FOvercast.16 mph51%29.57 "HgN/A
1:58 pm55 °FOvercast.21 mph51%29.59 "HgN/A
12:58 pm57 °FOvercast.18 mph49%29.64 "HgN/A
12:24 pm55 °FOvercast.21 mph51%29.65 "HgN/A
11:58 am54 °FOvercast.17 mph57%29.68 "HgN/A
10:58 am50 °FOvercast.13 mph62%29.72 "HgN/A
9:58 am48 °FOvercast.12 mph66%29.75 "HgN/A
8:58 am46 °FOvercast.13 mph71%29.77 "HgN/A
7:58 am46 °FOvercast.10 mph71%29.79 "HgN/A
6:58 am48 °FOvercast.6 mph71%29.80 "HgN/A
5:58 am49 °FOvercast.9 mph74%29.81 "HgN/A
4:58 am48 °FOvercast.7 mph76%29.83 "HgN/A
3:58 am48 °FOvercast.8 mph76%29.85 "HgN/A
2:58 am49 °FOvercast.7 mph77%29.87 "HgN/A
1:58 am50 °FOvercast.5 mph74%29.89 "HgN/A
12:58 am50 °FOvercast.8 mph73%29.90 "HgN/A
11:58 pm
Sun, Feb 26
51 °FOvercast.12 mph73%29.90 "HgN/A
10:58 pm50 °FOvercast.12 mph71%29.92 "HgN/A
9:58 pm51 °FOvercast.10 mph69%29.93 "HgN/A
Weather by CustomWeather, © 2017

See weather overviewHow to use our weather pages